User: anonymous   Login
Location: Asheville, NC
(35.6000°N, 82.5500°W)
Time: 06:37:34
(UTC-04:00)
Language:

ESTCUBE 1 - Orbit

View from above orbital plane
View from above orbital plane
View from above satellite
View from above satellite

Ground track
Ground track

The orbit data is extracted from the following two-line orbital elements,

1 39161U 13021C   18203.16916495  .00000107  00000-0  24914-4 0  9994
2 39161  98.0065 288.4969 0008643 311.7726  48.2754 14.72083860279595
Epoch (UTC): 22 July 2018 04:03:35
Eccentricity: 0.0008643
inclination: 98.0065°
perigee height: 648 km
apogee height: 660 km
right ascension of ascending node: 288.4969°
argument of perigee: 311.7726°
revolutions per day: 14.72083860
mean anomaly at epoch: 48.2754°
orbit number at epoch: 27959

The dashed part of the orbit path shows where the satellite is in the earth's shadow,  

DLR